IRNSS-1I (43286 NORAD) Tracking and Keplerian Element Data

This shows tracking and keplerian element data for the satellite.

Feedback or suggestion? Click here.




ElementValue
Catalog43286
NameIRNSS-1I
Epoch Orbit2265
Epoch Day159.87340939
Epoch Year2024
RAAN85.7759
Inclination29.099
Eccentricity0.0018357
Argument of Perigee182.3504
Mean Anonmoly357.9647
Mean Motion1.00272225
Decay Rate7.1E-07
L11 43286U 18035A 24159.87340939 .00000071 00000+0 00000+0 0 9990
L22 43286 29.0990 85.7759 0018357 182.3504 357.9647 1.00272225 22659



Live tracking and technical data element details for IRNSS-1I (NORAD 43286). IRNSS-1I can be tracked NOW for your location showing map with azimuth and elevation plus other details from your city location.







IsCatalogInMostPopularTable: catalog: 43286, numindb: 4920
Update: records affected: 1



GetName: 43286 IRNSS-1I

Hit Count: updated at: Tue, 17 Sep 2024 11:06:57 GMT